Regional Weather Roundup
Issued by NWS

Home | Current Version | Previous Version | Graphics & Text | Print | Product List | Glossary On
Versions: 1 2 3 4 5 6 7 8 9 10 11 12 13 14 15 16 17 18 19 20 21 22 23 24 25 26 27 28 29 30 31 32 33 34 35 36 37 38 39 40 41 42 43 44 45 46 47 48 49 50
773
ASUS43 KBIS 181802
RWRND

NORTH DAKOTA REGIONAL WEATHER ROUNDUP
NATIONAL WEATHER SERVICE BISMARCK ND
1200 PM CST SAT NOV 18 2017

NOTE: "FAIR" INDICATES FEW OR NO CLOUDS BELOW 12,000 FEET WITH NO
SIGNIFICANT WEATHER AND/OR OBSTRUCTIONS TO VISIBILITY.


NDZ001>003-009>011-017-181900-
NORTHWEST NORTH DAKOTA

CITY           SKY/WX    TMP DP  RH WIND       PRES   REMARKS
WILLISTON      SUNNY     24  11  57 NW8       30.12F WCI  15
6HR MIN TEMP:  12; 6HR MAX TEMP:  25;

MINOT          SUNNY     21   8  57 W17       30.08F WCI   7
$$

NDZ018>021-031>035-040>046-181900-
SOUTHWEST NORTH DAKOTA

CITY           SKY/WX    TMP DP  RH WIND       PRES   REMARKS
BISMARCK       PTSUNNY   27  18  69 NW14      30.13S WCI  16
6HR MIN TEMP:  20; 6HR MAX TEMP:  27;

DICKINSON      SUNNY     24  15  68 W12       30.08F WCI  13
GARRISON         N/A     21  14  74 NW17      30.08F WCI   7
6HR MIN TEMP:  13; 6HR MAX TEMP:  21;

HETTINGER ARPT SUNNY     28  15  58 W16       30.11F WCI  16
$$

NDZ004>008-012>016-024-026-027-054-181900-
NORTHEAST NORTH DAKOTA

CITY           SKY/WX    TMP DP  RH WIND       PRES   REMARKS
GRAND FORKS    PTSUNNY   20  11  68 NW16      30.03S WCI   6
GRND FRKS AFB  FLURRIES  19   9  63 NW17      30.03S WCI   4
DEVILS LAKE    SUNNY     16   8  71 NW22      30.02S WCI  -2
$$

NDZ022-023-025-028>030-036>039-047>053-181900-
SOUTHEAST NORTH DAKOTA

CITY           SKY/WX    TMP DP  RH WIND       PRES   REMARKS
FARGO          CLOUDY    22  11  62 NW22      30.04R WCI   6
6HR MIN TEMP:  20; 6HR MAX TEMP:  23;

JAMESTOWN      MOSUNNY   21  10  62 NW20G29   30.05R WCI   6
$$





USA.gov is the U.S. government's official web portal to all federal, state and local government web resources and services.